Regional Weather Roundup
Issued by NWS New Orleans/Baton Rouge, LA

Home | Current Version | Previous Version | Text Only | Print | Product List | Glossary On
Versions: 1 2 3 4 5 6 7 8 9 10 11 12 13 14 15 16 17 18 19 20 21 22 23 24 25 26 27 28 29 30 31 32 33 34 35 36 37 38 39 40 41 42 43 44 45 46 47 48 49 50
521
ASUS44 KLIX 251110
RWRLIX
NEW ORLEANS REGIONAL WEATHER ROUNDUP
NATIONAL WEATHER SERVICE NEW ORLEANS LA
500 AM CST THU DEC 25 2014

NOTE: "FAIR" INDICATES FEW OR NO CLOUDS BELOW 12,000 FEET WITH NO
      SIGNIFICANT WEATHER AND/OR OBSTRUCTIONS TO VISIBILITY.
      SKY/WX - SKY CONDITION AND SIGNIFICANT WEATHER.
      TMP - AIR TEMPERATURE.     DP    - DEWPOINT TEMPERATURE.
      RH  - RELATIVE HUMIDITY.   PRES  - PRESSURE.
      HI  - HEAT INDEX.          WCI   - WIND CHILL INDEX.

*  THESE STATIONS ARE NOT NWS OR FAA STATIONS AND ARE NOT UNDER
   NWS QUALITY CONTROL.

LAZ038-040-048-061>063-065>067-069-251200-
SOUTHEAST LOUISIANA

CITY           SKY/WX    TMP DP  RH WIND       PRES   REMARKS
N.O. AUDUBON     N/A     41  38  87 MISG        N/A
N.O. INTL ARPT CLEAR     41  35  79 SW3       30.20R
N.O. LAKEFRONT CLEAR     49  35  58 N8        30.19R
N.O. DOWNTOWN*   N/A     43  34  70 CALM      30.20R
SLIDELL        CLEAR     33  31  92 CALM      30.17S
BATON ROUGE    CLEAR     35  33  92 CALM      30.19R
BOOTHVILLE     MOCLDY    44  40  85 W6        30.20R
BELLE CHASSE   CLEAR     35  33  92 CALM      30.20R
BOGALUSA*        N/A     34  32  93 CALM      30.19S
GALLIANO*      SUNNY     33  33  98 MISG      30.20R
NEW ROADS*       N/A     34  33  96 CALM      30.18S
GONZALES*        N/A     34  34 100 CALM      30.19R
HAMMOND*       NOT AVBL
HOUMA*         CLEAR     35  35 100 CALM      30.20R FOG
PORT FOURCHON* SUNNY     45  39  81 N6        30.23R

$$

MSZ070-080>082-251200-
SOUTHERN MISSISSIPPI

CITY           SKY/WX    TMP DP  RH WIND       PRES   REMARKS
MCCOMB         CLEAR     32  30  92 CALM      30.16R
GULFPORT       CLEAR     37  34  89 CALM      30.18R
BILOXI         CLEAR     40  37  87 N5        30.18R
PASCAGOULA     CLEAR     32  31  96 CALM      30.19R

$$

COASTAL OBSERVATIONS
LAKE AND NEARSHORE STATIONS

STATION/POSITION TIME  TEMP    WIND        PRES    WAVE
                       AIR SEA DIR/SP/G            HT/PER
                 (UTC) (F)     (DEG/KT/KT) (MB)    (FT/S)
PASCAGOULA       1100   41     340/  6/  8 1021.7
WAVELAND YACHT   1100   40     290/  3/  3 1021.0
GRAND ISLE       1100   47 58  340/  4/  7 1022.7
SOUTHWEST PASS   1100   51                 1022.2
NEW CANAL        1100   44 56  230/  3/  5 1022.5
SHELL BEACH      1100   46 57  250/  5/  7 1021.9

OFFSHORE STATIONS

STATION/POSITION TIME  TEMP    WIND        PRES    WAVE
                       AIR SEA DIR/SP/G            HT/PER
                 (UTC) (F)     (DEG/KT/KT) (MB)    (FT/S)
64 S DAUPHIN ISL 1100   53 72  330/ 12/ 17 1021.3    5/ 8

$$




USA.gov is the U.S. government's official web portal to all federal, state and local government web resources and services.